TimeCDT,TemperatureF,Dew PointF,Humidity,Sea Level PressureIn,VisibilityMPH,Wind Direction,Wind SpeedMPH,Gust SpeedMPH,PrecipitationIn,Events,Conditions,WindDirDegrees,DateUTC
12:06 AM,69.8,68.0,94,29.95,4.0,Calm,Calm,-,N/A,,Partly Cloudy,0,2013-07-21 05:06:00
12:27 AM,69.8,68.0,94,29.95,2.5,Calm,Calm,-,N/A,,Scattered Clouds,0,2013-07-21 05:27:00
12:33 AM,69.8,68.0,94,29.94,1.0,Calm,Calm,-,N/A,,Mist,0,2013-07-21 05:33:00
12:40 AM,69.8,68.0,94,29.94,0.8,NW,3.5,-,N/A,,Mist,310,2013-07-21 05:40:00
12:45 AM,69.8,68.0,94,29.94,2.0,NW,3.5,-,N/A,,Partly Cloudy,320,2013-07-21 05:45:00
12:53 AM,69.1,68.0,96,29.93,4.0,Calm,Calm,-,N/A,,Partly Cloudy,0,2013-07-21 05:53:00
1:30 AM,68.0,66.2,94,29.93,1.2,Calm,Calm,-,N/A,,Mostly Cloudy,0,2013-07-21 06:30:00
1:36 AM,68.0,66.2,94,29.93,0.2,South,3.5,-,N/A,Fog,Fog,170,2013-07-21 06:36:00
1:53 AM,68.0,68.0,100,29.91,0.2,Calm,Calm,-,N/A,Fog,Fog,0,2013-07-21 06:53:00
2:53 AM,68.0,68.0,100,29.92,0.2,Calm,Calm,-,N/A,Fog,Fog,0,2013-07-21 07:53:00
3:24 AM,68.0,66.2,94,29.93,0.2,South,3.5,-,N/A,Fog,Fog,170,2013-07-21 08:24:00
3:53 AM,68.0,68.0,100,29.91,0.2,Calm,Calm,-,N/A,Fog,Fog,0,2013-07-21 08:53:00
4:53 AM,68.0,68.0,100,29.92,0.2,Calm,Calm,-,N/A,Fog,Fog,0,2013-07-21 09:53:00
5:43 AM,68.0,68.0,100,29.95,0.2,Calm,Calm,-,N/A,Fog,Fog,0,2013-07-21 10:43:00
5:53 AM,69.1,68.0,96,29.94,0.2,ESE,4.6,-,N/A,Fog,Fog,120,2013-07-21 10:53:00
6:33 AM,69.8,68.0,94,29.96,0.2,SE,4.6,-,N/A,Fog,Fog,140,2013-07-21 11:33:00
6:53 AM,69.1,69.1,100,29.95,0.2,SSE,6.9,-,0.01,Fog,Fog,150,2013-07-21 11:53:00
7:40 AM,69.8,69.8,100,29.98,0.2,SSE,5.8,-,N/A,Fog,Fog,160,2013-07-21 12:40:00
7:53 AM,70.0,69.1,97,29.96,0.2,Variable,3.5,-,N/A,Fog,Fog,0,2013-07-21 12:53:00
8:32 AM,69.8,69.8,100,29.98,0.5,Calm,Calm,-,N/A,Fog,Fog,0,2013-07-21 13:32:00
8:53 AM,70.0,70.0,100,29.96,1.8,ESE,3.5,-,N/A,,Overcast,120,2013-07-21 13:53:00
9:53 AM,73.0,70.0,90,29.96,3.0,SSE,3.5,-,N/A,,Overcast,150,2013-07-21 14:53:00
10:14 AM,73.4,69.8,88,29.98,5.0,Calm,Calm,-,N/A,,Overcast,0,2013-07-21 15:14:00
10:53 AM,75.0,70.0,84,29.96,6.0,ESE,3.5,-,N/A,,Haze,120,2013-07-21 15:53:00
11:53 AM,75.0,70.0,84,29.97,7.0,ESE,5.8,-,N/A,,Mostly Cloudy,120,2013-07-21 16:53:00
12:26 PM,75.2,69.8,83,29.97,8.0,SE,6.9,-,N/A,,Scattered Clouds,140,2013-07-21 17:26:00
12:35 PM,75.2,69.8,83,29.97,8.0,SE,5.8,-,N/A,,Mostly Cloudy,140,2013-07-21 17:35:00
12:53 PM,75.9,70.0,82,29.95,9.0,SSE,5.8,-,0.00,Rain,Light Rain,150,2013-07-21 17:53:00
1:49 PM,75.2,69.8,83,29.95,10.0,SE,5.8,-,0.00,,Scattered Clouds,140,2013-07-21 18:49:00
1:53 PM,75.9,70.0,82,29.94,10.0,SE,5.8,-,0.00,,Partly Cloudy,130,2013-07-21 18:53:00
2:35 PM,77.0,69.8,78,29.95,10.0,ESE,3.5,-,N/A,,Mostly Cloudy,120,2013-07-21 19:35:00
2:48 PM,77.0,69.8,78,29.95,10.0,Calm,Calm,-,N/A,,Scattered Clouds,0,2013-07-21 19:48:00
2:53 PM,77.0,70.0,79,29.93,10.0,Variable,6.9,-,N/A,,Scattered Clouds,0,2013-07-21 19:53:00
3:53 PM,78.1,71.1,79,29.91,10.0,ESE,5.8,-,N/A,,Mostly Cloudy,120,2013-07-21 20:53:00
4:01 PM,78.8,69.8,74,29.92,10.0,SE,5.8,-,N/A,,Scattered Clouds,130,2013-07-21 21:01:00
4:10 PM,78.8,69.8,74,29.92,10.0,Calm,Calm,-,N/A,,Mostly Cloudy,0,2013-07-21 21:10:00
4:37 PM,78.8,69.8,74,29.92,10.0,ESE,4.6,-,N/A,,Scattered Clouds,110,2013-07-21 21:37:00
4:53 PM,78.1,70.0,76,29.90,10.0,ESE,4.6,-,N/A,,Overcast,110,2013-07-21 21:53:00
5:53 PM,77.0,70.0,79,29.88,10.0,SE,5.8,-,N/A,,Overcast,130,2013-07-21 22:53:00
6:22 PM,77.0,69.8,78,29.89,10.0,SSE,4.6,-,N/A,,Scattered Clouds,150,2013-07-21 23:22:00
6:53 PM,75.9,70.0,82,29.87,10.0,SSE,3.5,-,N/A,,Partly Cloudy,160,2013-07-21 23:53:00
7:53 PM,75.0,71.1,87,29.88,9.0,Calm,Calm,-,N/A,,Clear,0,2013-07-22 00:53:00
8:53 PM,73.9,71.1,91,29.89,8.0,Calm,Calm,-,N/A,,Clear,0,2013-07-22 01:53:00
9:53 PM,73.4,71.6,94,29.90,7.0,Calm,Calm,-,N/A,,Clear,0,2013-07-22 02:53:00
10:53 PM,73.0,71.1,93,29.88,5.0,East,3.5,-,0.00,Rain,Light Rain,80,2013-07-22 03:53:00
10:59 PM,73.4,71.6,94,29.89,4.0,East,3.5,-,0.00,Rain,Light Rain,80,2013-07-22 03:59:00
11:32 PM,73.4,71.6,94,29.89,1.8,North,3.5,-,0.00,Thunderstorm,Overcast,360,2013-07-22 04:32:00
11:43 PM,73.4,71.6,94,29.89,3.0,NNE,3.5,-,0.00,Thunderstorm,Overcast,30,2013-07-22 04:43:00
11:53 PM,73.9,72.0,93,29.86,4.0,NNE,4.6,-,0.00,Thunderstorm,Overcast,30,2013-07-22 04:53:00